Location: Recife
(8.0585°S, 34.8848°W)
Time: 10:24:50
(UTC-03:00)

Transit 2A - Pass Details

Date: 18 April 2026
Orbit: 594 x 950 km, 66.7° (Epoch: 19 May)

Event Time Altitude Azimuth Distance (km) Brightness Sun altitude
Rises 09:04:55 0° 311° (NW) 2,884 8.9 51.6°
Reaches altitude 10° 09:07:48 10° 291° (WNW) 1,950 8.0 52.3°
Maximum altitude 09:10:46 18° 248° (WSW) 1,484 7.4 52.9°
Drops below altitude 10° 09:13:43 10° 204° (SSW) 1,930 7.9 53.5°
Sets 09:16:34 0° 185° (S) 2,843 8.7 54.1°
